Tracking 21472 objects as of 22-Sep-2020
HD Live streaming from Space Station
objects crossing your sky now

USA 294

Track USA 294 now!
10-day predictions
USA 294 is classified as:


NORAD ID: 45110
Int'l Code: 2020-007A
Perigee: 586.1 km
Apogee: 599.2 km
Inclination: 70.0 °
Period: 96.4 minutes
Semi major axis: 6963 km
RCS: Unknown
Launch date: January 31, 2020
Source: United States (US)
Launch site: Rocket Lab Launch Complex (RLLC)

USA 294 (NROL-151) is a classified satellite launched by Rocket Lab for the U.S. National Reconnaissance Office.
aabbcc
Your satellite tracking list
Your tracking list is empty




NASA's NSSDC Master Catalog

Two Line Element Set (TLE):
1 45110U 20007A   20262.17654816 0.00000750  00000-0  70141-4 0    02
2 45110  70.0011 297.1936 0009425 319.2975  40.7024 14.93990375    02
Source of the keplerian elements: McCants